Wind_Speed
9 9 10 9 9 9 8 8 7 7 7 7 7 6 5 6 6 6 6 6 6 5 5 6 6 6 6 6 6 7 7 7 7 6 7 7 8 7 7 8 9 9 9
8 8 9 9 9 9 9 8 8 8 8 8 8 7 6 6 7 7 6 7 7 7 6 6 7 7 7 8 8 8 8 8 8 8 8 9 9 9 9 9 9 9 10
9 8 8 9 9 9 9 9 8 9 9 8 8 8 7 7 7 7 7 8 8 8 7 8 8 8 8 8 9 9 9 9 10 10 10 10 10 11 11 10 10 10 10
10 10 10 9 9 9 9 9 9 9 9 9 7 7 8 8 8 8 9 9 9 9 9 9 10 10 10 10 10 10 10 10 10 11 11 11 11 12 12 12 12 11 12
12 12 12 11 10 10 10 10 10 10 10 9 8 8 8 9 9 9 10 10 10 10 11 11 11 11 11 11 11 11 11 11 11 12 12 12 12 13 12 13 13 13 13
14 13 13 12 11 10 10 10 10 11 11 10 9 9 10 10 10 11 11 12 12 12 12 13 13 12 12 13 13 13 13 12 13 13 13 13 14 14 14 14 14 14 15
14 14 14 13 12 12 11 11 11 11 12 11 11 11 11 11 11 12 13 13 13 14 14 14 14 14 14 14 14 14 14 14 14 14 15 15 16 16 16 15 15 16 16
14 15 14 13 13 13 13 12 12 12 12 12 12 12 13 13 12 13 14 14 14 15 15 16 16 16 16 15 15 16 16 16 16 15 15 16 16 17 18 17 17 17 17
15 15 15 15 14 14 15 14 13 13 13 13 14 14 14 14 14 15 15 15 16 17 17 17 16 16 17 16 16 17 17 17 17 16 16 17 18 18 18 18 19 18 18
16 16 17 16 16 16 16 16 16 15 15 15 15 15 15 15 15 16 17 17 17 17 18 17 17 17 18 18 18 18 18 18 18 18 18 18 19 18 19 20 20 20 20
17 18 17 17 18 18 18 18 18 17 17 17 17 16 16 16 16 16 17 18 18 19 18 17 17 17 18 19 19 19 19 19 19 19 19 19 19 20 20 21 21 22 21
19 19 20 20 19 19 20 19 18 18 17 17 17 17 17 17 17 18 18 18 19 18 19 18 18 18 18 19 19 19 19 19 19 19 19 19 20 21 21 21 22 22 22
23 22 21 22 20 19 20 19 18 18 18 18 18 18 18 18 18 19 19 19 19 19 19 19 18 18 19 19 19 19 20 20 20 20 20 20 20 20 20 21 22 22 22
26 25 25 23 21 20 19 19 18 19 19 19 19 19 19 19 19 19 19 19 19 20 19 19 19 19 20 19 19 19 19 20 20 20 21 21 21 21 21 21 22 23 22
27 26 24 22 20 20 19 19 19 20 20 21 20 20 20 21 20 20 20 20 20 20 20 21 21 21 20 20 20 20 20 20 19 20 20 21 22 22 22 22 22 22 22
27 27 24 23 22 21 21 20 21 21 21 21 21 22 22 21 21 21 21 22 21 21 21 22 22 21 22 21 21 20 20 20 20 20 21 22 22 22 22 22 22 22 22
27 26 26 25 24 24 24 23 22 22 22 23 23 23 23 22 22 23 23 23 22 22 22 21 22 22 22 21 20 20 20 20 20 21 21 21 22 23 23 23 23 22 23
27 27 26 25 25 25 25 24 23 23 22 23 23 23 24 24 24 24 24 24 23 23 22 22 22 21 20 20 20 20 21 21 21 22 22 22 23 23 23 23 23 23 23
29 28 27 26 26 26 25 24 24 24 24 24 24 25 25 25 25 24 25 24 24 24 24 23 22 21 21 21 20 20 21 21 22 22 23 23 23 23 23 24 24 24 24
29 29 28 28 28 27 26 25 25 25 25 25 25 26 26 26 25 25 25 25 25 25 24 23 22 21 21 21 21 21 21 22 22 22 22 23 23 23 23 23 23 23 24
28 28 28 28 27 26 26 25 26 26 26 26 25 25 25 25 26 26 26 26 26 26 26 24 23 22 22 22 22 22 22 22 22 22 23 23 22 23 23 23 23 23 23
29 29 30 29 28 28 27 26 26 27 27 27 27 26 25 25 26 26 27 27 27 27 27 26 23 22 22 22 23 23 22 22 22 22 23 23 23 23 23 23 22 22 23
30 30 30 30 30 29 28 27 27 28 28 27 27 27 26 26 26 27 28 28 27 26 25 25 24 23 22 22 22 22 22 22 22 22 23 23 24 24 23 23 22 23 23
30 30 29 29 30 30 30 29 29 28 28 28 27 27 28 27 28 28 28 27 27 25 25 25 24 23 23 22 22 22 22 23 23 23 24 24 24 23 23 22 22 23 22
29 29 30 30 30 29 30 29 28 28 28 28 28 28 28 28 28 27 27 27 26 26 25 24 24 23 23 23 23 23 23 23 23 24 24 24 24 24 23 23 23 23 22
30 29 29 29 29 29 29 28 28 28 28 28 28 28 28 27 27 27 27 26 26 25 24 23 23 23 23 24 24 24 23 23 23 24 25 24 24 23 23 22 22 22 22
Wind_Direction
358 0 0 357 355 354 350 344 343 341 339 338 337 331 326 329 333 333 332 330 325 318 310 307 310 305 302 301 295 291 288 283 280 278 276 272 271 262 260 260 258 261 260
348 349 350 349 349 350 346 339 335 333 333 332 331 330 324 322 324 324 323 325 320 311 305 309 309 306 304 302 299 295 291 287 283 280 278 275 271 265 266 267 264 263 263
338 339 340 341 340 340 340 337 331 331 330 329 329 326 323 318 315 314 314 315 314 311 298 303 305 305 303 304 302 299 294 289 284 282 279 276 275 277 274 270 269 267 267
328 329 331 333 334 333 332 331 328 327 326 322 321 317 313 310 310 309 309 310 308 305 302 303 301 298 297 297 297 299 293 290 286 286 281 276 273 275 276 274 271 269 269
320 319 321 325 327 327 325 325 327 326 326 321 310 307 306 303 301 304 304 303 301 297 293 295 296 295 294 293 295 298 294 288 287 284 281 276 273 273 273 273 273 271 272
317 317 315 315 317 318 319 320 322 322 323 320 309 303 303 298 297 297 298 298 298 297 292 290 290 289 289 290 292 293 291 287 285 285 282 277 273 272 271 271 272 272 275
311 314 312 310 313 313 314 318 315 315 315 313 307 304 300 295 293 293 294 295 295 297 295 291 289 287 288 289 289 289 288 287 283 282 281 279 274 272 273 271 271 272 273
307 306 310 310 311 308 309 308 308 308 308 308 304 302 300 297 292 291 291 291 293 292 293 292 289 286 286 287 288 289 288 286 284 282 281 279 276 274 273 271 270 271 272
301 302 303 304 304 303 305 304 300 303 305 306 304 299 299 295 294 295 293 291 290 291 290 292 288 287 287 287 288 288 286 286 284 281 280 279 279 277 273 271 269 268 269
297 299 298 299 299 301 302 303 301 302 301 300 306 300 295 294 292 291 292 292 291 290 290 291 288 286 288 287 286 286 285 284 281 280 279 278 277 276 275 273 271 269 268
298 299 297 298 299 299 300 301 300 301 300 299 300 303 300 297 296 292 291 293 293 292 291 288 286 285 284 285 283 285 284 282 279 278 278 276 275 276 276 276 273 271 270
293 294 295 296 298 299 298 296 297 296 297 298 298 298 299 299 299 298 295 294 291 292 289 287 288 286 285 284 283 281 284 281 278 277 276 276 276 278 277 277 277 275 272
296 294 295 293 292 293 293 290 291 295 295 296 298 298 299 297 299 301 300 297 293 292 292 290 290 288 289 288 284 281 281 279 276 275 275 276 276 277 277 276 276 275 274
296 297 297 290 286 287 287 286 287 289 292 293 296 301 302 301 303 305 302 299 297 297 296 292 291 291 292 291 286 283 280 277 276 275 275 275 277 278 278 277 276 276 275
292 295 295 289 285 284 284 285 284 286 287 290 293 295 298 299 301 302 302 300 299 298 296 293 294 294 291 291 290 285 283 280 280 279 277 276 276 276 276 276 276 275 275
292 293 293 291 288 285 286 286 285 285 285 286 289 292 294 297 299 301 300 299 298 298 298 296 295 294 292 290 289 288 287 284 283 281 279 277 276 276 276 275 274 274 274
293 293 293 290 288 287 286 285 284 284 285 285 286 288 291 295 298 299 300 300 298 298 297 296 294 293 291 289 288 286 286 285 284 283 281 278 277 275 276 275 275 274 273
290 291 289 285 286 286 286 286 287 286 287 288 287 288 290 293 295 296 297 298 296 297 296 295 293 291 290 289 288 286 286 286 285 283 281 280 278 277 276 276 275 274 274
286 286 285 284 284 284 284 284 285 286 287 289 288 286 288 291 293 294 296 298 297 296 294 292 291 289 290 289 288 287 288 288 287 284 282 280 278 277 275 274 273 273 274
283 283 284 283 283 283 282 283 284 286 287 288 288 287 287 289 291 292 293 294 295 295 293 290 288 288 288 289 287 287 287 288 288 286 284 281 279 277 275 275 274 274 275
282 282 283 281 281 282 284 283 284 285 285 286 288 288 288 289 289 290 292 293 294 294 293 289 287 286 287 288 287 286 285 286 286 287 285 282 280 278 276 275 273 272 273
282 283 283 281 280 281 282 282 283 284 284 285 287 287 288 289 288 289 291 292 292 294 294 291 286 285 286 288 287 285 284 285 285 284 284 283 280 278 277 276 274 273 273
285 285 284 283 280 280 280 280 282 283 284 285 285 285 287 289 289 289 290 291 291 293 294 293 286 283 285 287 288 286 284 284 284 284 285 285 282 280 277 275 274 274 274
283 283 282 282 282 281 280 279 280 281 282 284 285 286 287 287 288 290 290 291 292 291 292 290 288 285 283 285 285 285 284 283 284 284 284 283 281 277 276 274 275 276 275
283 282 281 281 282 282 281 280 279 281 282 283 284 286 286 287 288 288 289 289 288 289 290 288 287 286 285 285 284 283 284 284 284 284 282 282 280 277 274 272 275 276 275
282 282 282 282 282 282 280 280 280 281 282 283 283 284 286 288 287 287 288 289 289 288 289 288 287 287 286 286 286 285 284 283 283 282 282 281 280 277 275 274 272 272 272
Height
5902 5901 5899 5897 5896 5894 5892 5891 5890 5888 5887 5886 5885 5884 5882 5881 5880 5879 5879 5878 5877 5877 5876 5875 5875 5874 5873 5873 5873 5872 5871 5871 5871 5871 5870 5870 5869 5869 5868 5868 5868 5868 5867
5902 5900 5899 5897 5895 5893 5892 5890 5888 5887 5885 5884 5883 5881 5880 5879 5878 5877 5877 5876 5876 5875 5874 5873 5872 5872 5871 5870 5870 5869 5869 5868 5868 5868 5868 5868 5868 5867 5866 5866 5865 5865 5865
5901 5899 5897 5896 5894 5892 5890 5889 5887 5885 5884 5882 5880 5879 5878 5877 5876 5875 5875 5874 5873 5872 5871 5870 5870 5869 5868 5868 5868 5867 5866 5866 5865 5865 5865 5865 5864 5864 5863 5863 5862 5862 5862
5899 5897 5896 5894 5892 5891 5889 5887 5885 5883 5882 5879 5878 5877 5876 5875 5874 5873 5872 5872 5871 5870 5869 5868 5867 5866 5866 5865 5865 5864 5863 5863 5862 5862 5861 5861 5861 5861 5860 5859 5859 5859 5858
5897 5895 5893 5892 5890 5889 5887 5885 5883 5881 5879 5877 5876 5875 5874 5873 5872 5871 5870 5869 5868 5867 5866 5865 5864 5863 5863 5862 5861 5860 5859 5859 5858 5858 5857 5857 5856 5856 5856 5855 5855 5854 5854
5894 5892 5891 5889 5888 5886 5884 5882 5881 5879 5877 5875 5874 5872 5871 5870 5869 5868 5867 5866 5865 5864 5862 5862 5861 5860 5859 5858 5857 5856 5855 5855 5854 5853 5852 5852 5852 5852 5852 5851 5850 5850 5849
5891 5889 5887 5887 5885 5884 5882 5880 5878 5877 5875 5873 5871 5870 5869 5867 5866 5865 5863 5862 5861 5860 5859 5857 5856 5855 5854 5853 5853 5852 5851 5850 5849 5849 5848 5847 5847 5847 5847 5847 5846 5846 5845
5889 5887 5885 5884 5882 5881 5879 5877 5875 5873 5872 5870 5868 5867 5865 5864 5862 5861 5860 5858 5857 5856 5855 5853 5852 5850 5849 5848 5847 5846 5845 5845 5844 5844 5843 5842 5842 5841 5841 5841 5841 5841 5840
5886 5883 5881 5880 5879 5877 5876 5874 5872 5870 5868 5866 5864 5862 5861 5860 5859 5857 5855 5854 5852 5851 5849 5848 5846 5845 5844 5843 5842 5841 5840 5840 5839 5838 5838 5837 5836 5836 5835 5835 5835 5835 5835
5881 5879 5878 5876 5874 5872 5871 5869 5868 5866 5864 5861 5859 5857 5856 5855 5854 5852 5851 5849 5847 5845 5844 5842 5841 5840 5839 5838 5837 5836 5835 5834 5833 5832 5832 5831 5830 5830 5829 5828 5828 5828 5829
5876 5875 5873 5871 5869 5868 5866 5865 5863 5861 5859 5857 5855 5854 5852 5850 5848 5847 5845 5844 5842 5840 5838 5837 5835 5834 5832 5831 5831 5830 5829 5828 5827 5826 5825 5825 5824 5824 5823 5822 5822 5821 5822
5870 5869 5868 5866 5865 5863 5861 5860 5858 5857 5855 5853 5851 5849 5847 5846 5844 5842 5841 5839 5837 5835 5833 5831 5829 5828 5826 5825 5824 5823 5822 5821 5820 5820 5819 5819 5818 5817 5816 5816 5815 5815 5814
5864 5863 5862 5861 5859 5858 5857 5855 5853 5851 5850 5848 5846 5844 5843 5841 5839 5838 5836 5833 5831 5829 5828 5825 5824 5822 5820 5818 5817 5816 5815 5814 5813 5813 5812 5812 5811 5811 5810 5809 5808 5808 5808
5859 5857 5856 5854 5853 5852 5851 5849 5848 5846 5844 5843 5841 5839 5837 5835 5833 5832 5830 5828 5826 5824 5822 5820 5818 5816 5814 5813 5811 5810 5809 5808 5806 5806 5805 5805 5805 5804 5803 5802 5802 5801 5801
5853 5851 5849 5848 5847 5846 5845 5844 5843 5841 5839 5838 5836 5834 5832 5830 5828 5826 5824 5822 5820 5818 5816 5814 5812 5810 5809 5807 5805 5804 5803 5801 5800 5799 5798 5798 5797 5797 5796 5795 5795 5794 5794
5847 5846 5844 5842 5841 5840 5838 5837 5837 5835 5834 5832 5830 5827 5826 5824 5822 5820 5818 5816 5814 5812 5809 5808 5806 5804 5803 5801 5799 5797 5796 5795 5794 5792 5791 5791 5790 5789 5788 5788 5788 5787 5787
5841 5840 5838 5836 5835 5833 5832 5830 5830 5829 5827 5825 5823 5821 5820 5818 5817 5814 5812 5810 5808 5805 5803 5801 5799 5798 5797 5795 5793 5792 5790 5789 5788 5786 5785 5784 5783 5782 5781 5781 5780 5780 5779
5834 5833 5832 5830 5829 5827 5826 5824 5823 5822 5820 5819 5817 5815 5813 5812 5810 5808 5806 5803 5801 5799 5797 5795 5793 5791 5790 5789 5787 5786 5784 5783 5781 5780 5778 5777 5776 5775 5774 5774 5773 5773 5772
5828 5826 5825 5823 5822 5820 5818 5817 5816 5815 5813 5812 5810 5808 5807 5805 5803 5801 5799 5796 5794 5792 5790 5788 5786 5785 5784 5782 5781 5779 5777 5776 5775 5773 5772 5771 5769 5768 5768 5767 5766 5765 5765
5820 5819 5817 5815 5814 5812 5810 5810 5809 5807 5806 5804 5803 5801 5799 5797 5796 5794 5792 5790 5788 5785 5783 5781 5779 5778 5777 5776 5774 5772 5771 5770 5768 5767 5765 5764 5762 5761 5760 5760 5759 5759 5758
5812 5811 5809 5807 5806 5804 5802 5801 5801 5799 5798 5797 5795 5794 5792 5790 5789 5787 5785 5783 5780 5778 5775 5774 5772 5771 5770 5769 5767 5765 5764 5762 5761 5760 5758 5757 5755 5754 5753 5752 5752 5752 5751
5804 5802 5801 5799 5797 5796 5795 5794 5793 5791 5790 5788 5787 5786 5784 5783 5781 5779 5777 5775 5773 5771 5769 5766 5765 5763 5762 5761 5760 5758 5757 5755 5754 5753 5751 5750 5748 5747 5746 5745 5745 5744 5744
5795 5793 5792 5791 5789 5788 5787 5786 5784 5783 5781 5780 5779 5778 5776 5775 5773 5771 5769 5767 5765 5763 5761 5759 5757 5756 5755 5754 5752 5751 5749 5748 5747 5745 5744 5742 5741 5740 5739 5738 5737 5737 5736
5786 5785 5783 5782 5780 5779 5778 5776 5775 5774 5773 5771 5770 5769 5768 5767 5765 5763 5761 5759 5757 5755 5753 5751 5750 5749 5748 5747 5746 5744 5742 5741 5740 5738 5737 5735 5733 5732 5732 5731 5730 5730 5729
5777 5775 5774 5772 5771 5770 5768 5765 5765 5764 5764 5763 5762 5761 5760 5758 5756 5755 5753 5751 5749 5747 5746 5744 5743 5742 5741 5740 5738 5737 5735 5734 5732 5731 5729 5728 5726 5725 5724 5723 5723 5723 5723
5768 5766 5765 5763 5761 5760 5758 5757 5756 5755 5755 5754 5753 5752 5751 5750 5748 5747 5745 5743 5742 5740 5738 5737 5736 5735 5734 5732 5731 5729 5727 5726 5724 5723 5721 5720 5718 5717 5717 5717 5716 5716 5716